Probability
0 0 0 0 0 0 0 0 0 0 0 0 0 0 0 0 0 0 0 0 0 0 1 2 3 3 3 3 1 0 0 0 0 0 0 0 0 1 2 2 1 0 0 0
0 0 0 0 0 0 0 0 0 0 0 0 0 0 0 0 0 0 0 0 0 0 0 1 3 3 3 3 2 1 0 0 0 0 0 0 0 0 1 2 1 0 0 0
0 0 0 0 0 0 0 0 0 0 0 0 0 0 0 0 0 0 0 0 0 0 0 1 2 3 3 3 3 1 0 0 0 0 0 0 0 0 1 1 1 0 0 0
0 0 0 0 0 0 0 0 0 0 0 0 0 0 0 0 0 0 0 0 0 0 0 0 1 1 2 3 3 2 1 0 0 0 0 0 0 0 0 0 0 0 0 0
0 0 0 0 0 0 0 0 0 0 0 0 0 0 0 0 0 0 0 0 0 0 0 0 0 0 1 1 2 2 1 0 0 0 0 0 0 0 0 0 0 0 0 0
0 0 0 0 0 0 0 0 0 0 0 0 0 0 0 0 0 0 0 0 0 0 0 0 0 0 0 0 1 2 2 1 0 0 0 0 0 0 0 0 0 0 0 0
0 0 0 0 0 0 0 0 0 0 0 0 0 0 0 0 0 0 0 0 0 0 0 0 0 0 0 0 1 2 2 1 0 0 0 0 0 0 0 0 0 0 0 0
0 0 0 0 0 0 0 0 0 0 0 0 0 0 0 0 0 0 0 0 0 0 0 0 0 0 0 0 1 2 2 1 0 0 0 0 0 0 0 0 0 0 0 0
0 0 0 0 0 0 0 0 0 0 0 0 0 0 0 0 0 0 0 0 0 0 0 0 0 0 0 0 0 1 1 0 0 0 0 0 0 0 0 0 0 0 0 0
0 0 0 0 0 0 0 0 0 0 0 0 0 0 0 0 0 0 0 0 0 0 0 0 0 0 0 0 0 0 0 0 0 0 0 0 0 0 0 0 0 0 0 0
0 0 0 0 0 0 0 0 0 0 0 0 0 0 0 0 0 0 0 0 0 0 0 0 0 0 0 0 0 0 0 0 0 0 0 0 0 0 0 0 0 0 0 0
0 0 0 0 0 0 0 0 0 0 0 0 0 0 0 0 0 0 0 0 0 0 0 0 0 0 0 0 0 0 0 0 0 0 0 0 0 0 0 0 0 0 0 0
0 0 0 0 0 0 0 0 0 0 0 0 0 0 0 0 0 0 0 0 0 0 0 0 0 0 0 0 0 0 0 0 0 0 0 0 0 0 0 0 0 0 0 0
0 0 0 0 0 0 0 0 0 0 0 0 0 0 0 0 0 0 0 0 0 0 0 0 0 0 0 0 0 0 0 0 0 0 0 0 0 0 0 0 0 0 0 0
0 0 0 0 0 0 0 0 0 0 0 0 0 0 0 0 0 0 0 0 0 0 0 0 0 0 0 0 0 0 0 0 0 0 0 0 0 0 0 0 0 0 0 0
0 0 0 0 0 0 0 0 0 0 0 0 0 0 0 0 0 0 0 0 0 0 0 0 0 0 0 0 0 0 0 0 0 0 0 0 0 0 0 0 0 0 0 0
0 0 0 0 0 0 0 0 0 0 0 0 0 0 0 0 0 0 0 0 0 0 0 0 0 0 0 0 0 0 0 0 0 0 0 0 0 0 0 0 0 0 0 0
0 0 0 0 0 0 0 0 0 0 0 0 0 0 0 0 0 0 0 0 0 0 0 0 0 0 0 0 0 0 0 0 0 0 0 0 0 0 0 0 0 0 0 0
0 0 0 0 0 0 0 0 0 0 0 0 0 0 0 0 0 0 0 0 0 0 0 0 0 0 0 0 0 0 0 0 0 0 0 0 0 0 0 0 0 0 0 0
0 0 0 0 0 0 0 0 0 0 0 0 0 0 0 0 0 0 0 0 0 0 0 0 0 0 0 0 0 0 0 0 0 0 0 0 0 0 0 0 0 0 0 0
0 0 0 0 0 0 0 0 0 0 0 0 0 0 0 0 0 0 0 0 0 0 0 0 0 0 0 0 0 0 0 0 0 0 0 0 0 0 0 0 0 0 0 0
0 0 0 0 0 0 0 0 0 0 0 0 0 0 0 0 0 0 0 0 0 0 0 0 0 0 0 0 0 0 0 0 0 0 0 0 0 0 0 0 0 0 0 0
0 0 0 0 0 0 0 0 0 0 0 0 0 0 0 0 0 0 0 0 0 0 0 0 0 0 0 0 0 0 0 0 0 0 0 0 0 0 0 0 0 0 0 0
0 0 0 0 0 0 0 0 0 0 0 0 0 0 0 0 0 0 0 0 0 0 0 0 0 0 0 0 0 0 0 0 0 0 0 0 0 0 0 0 0 0 0 0
0 0 0 0 0 0 0 0 0 0 0 0 0 0 0 0 0 0 0 0 0 0 0 0 0 0 0 0 0 0 0 0 0 0 0 0 0 0 0 0 0 0 0 0
0 0 0 0 0 0 0 0 0 0 0 0 0 0 0 0 0 0 0 0 0 0 0 0 0 0 0 0 0 0 0 0 0 0 0 0 0 0 0 0 0 0 0 0
Wind_Speed
1 3 4 7 7 4 4 4 5 5 2 2 6 6 5 5 4 3 3 2 2 2 1 2 2 2 3 3 3 3 3 3 2 2 1 1 1 0 0 0 1 1 2 2
3 4 6 4 3 3 3 4 5 4 2 3 4 6 4 5 5 4 3 2 2 1 1 1 2 2 2 2 2 2 2 2 2 1 0 0 0 0 1 0 0 1 2 2
6 4 2 2 2 3 5 6 5 4 3 1 0 4 4 2 3 2 2 1 2 2 2 1 1 1 1 1 1 1 1 1 1 2 1 1 1 1 1 1 0 1 1 1
3 3 1 2 3 4 7 5 5 3 1 3 3 5 5 4 3 2 2 1 1 1 2 2 1 1 1 0 0 0 1 1 1 1 1 2 1 1 1 1 1 1 1 1
3 2 2 4 5 5 5 3 4 4 3 2 3 4 6 3 4 5 4 3 2 1 1 2 2 1 1 1 1 0 1 1 1 1 1 1 0 1 1 1 1 1 1 1
3 2 2 4 3 3 1 1 1 1 2 5 7 6 7 5 6 5 5 3 2 1 1 1 1 2 2 3 2 1 1 1 1 0 0 1 1 1 1 1 1 1 2 1
3 3 2 1 0 1 2 3 1 2 2 7 3 5 7 3 3 5 5 4 2 1 1 1 2 1 2 2 3 2 1 1 1 0 1 1 2 2 3 2 2 2 2 2
2 5 3 2 4 3 3 5 5 5 5 5 2 7 4 1 0 2 3 3 2 2 1 1 1 1 1 1 2 2 1 2 1 1 1 1 1 1 2 3 2 3 3 3
4 5 1 2 2 4 3 4 3 3 1 3 5 4 4 1 1 2 2 2 2 1 1 1 1 1 1 1 1 1 1 2 2 2 1 1 1 2 2 3 3 3 3 3
4 3 3 2 1 1 3 4 3 3 3 5 5 4 5 4 4 3 2 2 2 1 1 0 0 1 1 1 1 1 1 1 2 2 1 1 2 2 2 3 3 3 3 3
3 3 3 1 3 4 2 2 3 3 3 4 4 7 4 6 6 6 5 3 2 2 1 0 0 1 1 1 1 2 2 2 2 2 2 2 2 2 2 2 3 3 3 3
2 3 3 5 3 2 4 4 5 4 4 4 4 8 1 3 3 4 3 2 2 1 0 0 0 1 1 1 1 2 2 2 2 2 2 2 2 2 2 3 3 3 3 4
3 4 1 3 2 1 1 2 4 3 2 4 5 8 1 2 1 2 2 2 2 1 1 1 1 1 1 2 2 2 2 2 2 2 2 2 2 2 3 3 3 3 3 3
4 4 6 8 5 4 3 4 4 5 4 6 9 9 5 2 2 2 1 2 1 1 1 0 0 1 2 2 2 2 2 2 2 2 2 2 3 3 3 4 4 3 3 3
3 3 4 6 4 3 5 7 7 9 9 9 9 9 10 6 5 4 3 2 1 1 0 1 1 1 2 2 3 3 3 3 2 2 2 3 3 3 3 3 4 4 3 4
2 3 2 4 4 4 6 8 9 10 8 9 8 11 7 2 2 2 3 3 3 2 2 1 1 2 2 2 3 3 3 3 2 2 3 3 3 3 4 4 4 4 4 4
3 4 2 4 3 3 8 8 9 6 5 7 11 10 2 1 2 4 4 4 3 2 2 2 2 2 3 3 3 3 3 3 3 3 3 4 3 4 4 4 4 4 4 4
5 4 2 1 2 7 7 1 4 5 5 5 4 3 3 3 2 2 3 4 3 2 2 2 2 3 3 3 3 3 3 3 3 3 4 4 4 4 4 4 4 4 4 4
4 6 3 2 3 8 6 2 3 4 5 4 5 4 1 1 2 2 1 2 3 2 2 2 1 2 2 2 3 3 3 3 3 4 4 4 4 4 4 5 5 5 4 4
2 3 4 3 4 8 5 1 1 3 4 3 3 4 2 2 1 3 1 0 1 1 0 0 1 1 2 2 2 2 3 3 4 5 5 5 4 4 5 5 5 4 4 5
2 2 4 5 6 8 4 2 2 4 5 1 2 2 3 3 4 2 0 1 1 0 0 0 0 1 1 2 2 3 3 4 5 5 5 5 5 5 5 5 4 4 5 5
6 5 5 4 6 9 2 4 6 5 0 1 1 1 2 2 1 1 1 1 1 1 1 1 1 2 2 2 2 3 4 5 5 5 5 5 5 5 4 4 5 5 4 5
5 6 5 7 7 2 3 4 2 1 2 1 1 1 1 1 2 2 1 1 1 1 1 1 1 2 2 2 2 3 5 5 5 5 5 5 5 5 5 4 5 4 4 3
3 1 2 3 5 3 1 1 1 0 1 0 0 0 1 1 2 2 1 1 1 1 1 1 1 2 3 3 3 4 5 5 5 5 5 5 5 5 5 4 4 4 4 4
3 3 3 4 3 2 2 1 1 1 1 1 1 1 0 1 1 1 1 1 1 2 2 1 2 3 4 4 4 4 4 4 5 5 5 5 5 5 5 5 4 5 4 5
3 4 5 5 4 3 3 1 1 2 1 0 1 1 1 1 1 1 1 1 1 2 2 2 2 3 4 4 4 4 4 4 4 5 5 4 4 4 4 5 6 8 9 12
Wind_Direction
101 98 199 214 208 210 198 209 241 247 250 217 224 237 227 198 175 179 182 181 176 173 153 113 86 70 63 49 45 38 58 60 69 71 75 81 49 35 21 102 104 137 133 138
67 230 230 217 216 213 221 233 250 273 258 226 233 248 222 194 189 181 176 182 176 154 63 99 97 83 78 71 49 49 42 55 57 46 33 339 101 281 292 282 126 139 149 155
192 234 222 190 211 215 230 223 230 244 305 268 214 275 214 188 142 121 128 165 158 168 174 163 136 118 96 73 65 46 20 29 36 44 53 50 40 29 7 328 266 277 194 178
226 257 232 202 221 210 242 232 233 227 211 257 181 264 237 194 188 189 199 202 197 183 174 161 133 127 138 114 64 137 109 40 33 67 105 122 137 244 268 273 259 284 245 195
234 217 203 223 231 210 234 238 237 225 200 263 219 229 263 171 213 222 217 218 221 204 166 166 159 150 88 42 43 87 101 60 36 90 143 157 204 297 293 299 269 268 273 207
241 242 207 223 243 211 214 39 9 72 118 246 213 200 259 203 213 212 208 211 209 191 101 85 77 73 53 35 22 24 87 34 13 68 179 185 212 278 286 285 270 268 278 240
291 272 250 194 222 353 86 95 18 321 251 244 195 205 247 213 210 189 188 197 183 142 112 86 73 66 47 27 10 1 14 355 339 330 272 253 228 217 225 234 237 244 268 269
222 265 230 195 186 197 202 166 178 222 237 272 245 231 249 235 171 133 146 158 143 133 126 101 63 54 27 1 350 345 341 328 309 277 265 276 270 243 245 246 246 236 242 250
197 250 295 243 196 164 174 196 179 162 250 263 253 272 294 72 78 106 118 125 153 162 146 129 62 39 2 331 320 314 323 317 304 289 273 268 269 274 273 272 268 255 254 264
168 246 275 300 34 168 170 154 122 161 218 256 270 252 241 218 223 201 180 190 211 188 146 131 84 3 345 332 328 334 323 304 303 302 290 293 280 275 275 274 266 268 266 269
159 189 286 309 207 200 163 166 161 179 203 205 261 261 222 201 198 193 202 202 198 198 204 213 320 334 340 347 358 347 335 338 340 332 314 302 288 284 282 273 270 266 265 269
151 147 243 249 254 221 182 182 160 181 232 213 235 266 289 186 181 177 186 196 185 169 147 45 1 360 2 351 345 338 331 334 329 324 319 310 305 296 290 285 276 272 265 272
142 145 272 314 301 352 211 206 179 161 165 200 215 260 3 92 108 158 169 195 187 148 104 40 26 5 345 337 328 323 327 324 324 325 324 317 318 313 302 296 292 283 278 285
139 174 196 216 224 187 225 235 198 169 200 225 230 249 265 252 237 233 202 197 173 159 156 144 341 325 326 328 326 316 319 323 324 321 317 311 310 306 302 302 299 294 284 279
136 211 235 256 261 220 232 235 214 210 214 218 237 238 251 237 222 213 195 176 162 160 204 233 273 305 317 322 324 324 324 327 327 322 316 309 309 310 310 311 309 303 295 288
155 200 229 270 261 251 264 255 233 232 232 234 249 263 258 253 161 175 191 189 201 219 235 253 280 294 296 303 312 320 320 323 323 314 311 314 317 315 313 311 310 309 304 302
180 171 190 261 285 324 270 241 218 215 214 204 230 244 222 189 211 209 204 201 215 234 247 256 267 275 288 295 304 305 310 316 322 319 318 319 314 312 310 311 314 308 302 301
169 163 181 254 25 242 246 232 196 207 246 231 235 237 206 212 250 246 198 190 213 230 239 253 268 292 306 313 321 318 320 322 321 320 318 318 316 310 312 312 309 305 298 294
180 164 168 178 237 270 281 244 175 190 266 238 218 236 228 103 28 320 216 187 215 229 234 248 274 299 315 321 324 328 329 329 324 319 315 313 309 306 309 307 304 299 296 296
76 137 161 179 216 244 247 254 229 118 278 254 194 204 191 135 236 258 197 33 311 344 347 269 335 339 324 322 334 334 325 325 321 317 314 310 305 300 299 297 297 298 298 296
136 169 199 211 232 258 255 250 129 177 246 252 181 194 176 197 220 240 347 336 305 310 19 66 23 321 309 323 335 327 324 317 314 316 316 315 313 305 298 297 299 300 300 302
182 183 199 188 219 251 211 146 186 211 131 124 162 180 183 208 236 262 293 313 340 9 19 29 352 321 320 329 330 321 316 315 317 316 316 314 313 311 310 305 303 303 299 297
201 198 190 196 215 251 165 184 210 143 155 192 194 253 187 216 246 265 287 304 326 347 346 345 330 322 325 325 320 308 310 317 317 317 315 311 311 311 312 304 301 301 296 293
246 198 180 238 261 258 243 266 320 146 163 143 144 256 174 219 254 272 285 306 338 336 333 341 336 324 317 317 312 301 310 321 318 314 313 313 312 311 312 307 299 294 293 291
231 176 197 241 268 320 294 234 219 78 72 64 33 36 203 219 276 275 285 298 307 317 323 318 307 303 303 310 309 313 319 322 318 313 312 311 310 308 307 304 296 296 281 283
207 189 195 229 221 202 241 260 109 123 116 63 38 3 359 306 278 292 292 297 298 303 308 309 306 303 303 306 306 308 312 312 312 314 315 311 309 308 308 308 307 301 301 302